This demonstration page uses our WeatherBlox Daily Observations layout. Learn more.

Left ArrowRight Arrow

Hourly Observations for February 5, 2020

Temp ( °F °C ) Dew Point ( °F °C ) Humidity (%) Winds ( mph kmh ) Pressure ( in mb ) Visibility ( mi km ) Precip ( " mm )
12:59 am 00:59 Cloudy 64 17.8 48 8.9 56 56 SW 10 17 29.87 1012 10 16 0.00 0.00
1:59 am 01:59 Cloudy 63 17.2 48 8.9 58 58 SSW 12 19 29.87 1012 10 16 0.00 0.00
2:59 am 02:59 Cloudy 64 17.8 50 10 60 60 SW 10 17 29.86 1011 10 16 0.00 0.00
3:59 am 03:59 Cloudy 63 17.2 52 11.1 68 68 SSW 10 17 29.86 1011 10 16 0.00 0.00
4:59 am 04:59 Cloudy 63 17.2 52 11.1 68 68 SSW 10 17 29.88 1012 10 16 0.00 0.00
5:59 am 05:59 Mostly Cloudy 62 16.7 52 11.1 70 70 SSW 12 19 29.88 1012 10 16 0.00 0.00
6:59 am 06:59 Mostly Cloudy 62 16.7 53 11.7 73 73 SW 9 15 29.91 1013 10 16 0.00 0.00
7:59 am 07:59 Cloudy 62 16.7 53 11.7 73 73 SW 8 13 29.93 1014 10 16 0.00 0.00
8:59 am 08:59 Mostly Cloudy 64 17.8 54 12.2 70 70 SW 8 13 29.94 1014 10 16 0.00 0.00
9:59 am 09:59 Mostly Cloudy 66 18.9 55 12.8 68 68 SW 10 17 29.95 1014 10 16 0.00 0.00
10:59 am 10:59 Mostly Cloudy 67 19.4 56 13.3 68 68 W 9 15 29.96 1015 10 16 0.00 0.00
11:49 am 11:49 Cloudy 67 19.4 56 13.3 68 68 W 7 11 29.96 1015 10 16 0.00 0.00
11:59 am 11:59 Cloudy 52 11.1 46 7.8 80 80 N 17 28 29.97 1015 8 13 0.00 0.00
12:06 pm 12:06 Cloudy 51 10.6 46 7.8 83 83 N 15 24 29.97 1015 7 11 0.00 0.00
12:59 pm 12:59 Cloudy with Mist and Fog 50 10 47 8.3 89 89 NNE 17 28 29.98 1015 4 6 0.00 0.00
1:12 pm 13:12 Cloudy with Mist and Fog 50 10 46 7.8 86 86 NNE 16 26 29.98 1015 4 6 0.00 0.00
1:59 pm 13:59 Cloudy with Mist and Fog 49 9.4 45 7.2 86 86 NE 14 22 29.97 1015 6 10 0.00 0.00
2:59 pm 14:59 Cloudy with Haze 47 8.3 42 5.6 83 83 NE 15 24 29.98 1015 6 10 0.00 0.00
3:59 pm 15:59 Mostly Cloudy with Haze 46 7.8 41 5 83 83 ENE 17 28 29.99 1016 6 10 0.00 0.00
4:59 pm 16:59 Cloudy with Mist and Fog 45 7.2 42 5.6 90 90 NE 13 20 30.01 1016 3 5 0.00 0.00
5:59 pm 17:59 Cloudy with Mist and Fog 45 7.2 43 6.1 93 93 NE 14 22 30.01 1016 3 4 0.00 0.00
6:17 pm 18:17 Cloudy with Mist and Fog 45 7.2 43 6.1 93 93 NE 13 20 30.00 1016 3 5 0.00 0.00
6:59 pm 18:59 Cloudy with Mist and Fog 45 7.2 43 6.1 93 93 ENE 10 17 29.99 1016 4 6 0.00 0.00
7:59 pm 19:59 Cloudy with Mist and Fog 46 7.8 44 6.7 93 93 ENE 10 17 29.98 1015 6 10 0.00 0.00
8:59 pm 20:59 Cloudy with Mist and Fog 46 7.8 44 6.7 93 93 ENE 8 13 29.94 1014 3 4 0.00 0.00
9:12 pm 21:12 Cloudy with Mist and Fog 46 7.8 45 7.2 96 96 E 7 11 29.95 1014 2 3 0.00 0.00
9:59 pm 21:59 Cloudy with Mist and Fog 46 7.8 45 7.2 96 96 ENE 7 11 29.93 1014 2 2 0.00 0.00
10:59 pm 22:59 Cloudy with Mist and Fog 46 7.8 45 7.2 96 96 ENE 5 7 29.91 1013 2 3 0.00 0.00
11:59 pm 23:59 Cloudy with Mist and Fog 47 8.3 46 7.8 97 97 NE 3 6 29.86 1011 1 2 0.00 0.00

Powered by AerisWeather